COSMOS 1083

Satellite information

Favourite Embed

Satellite Type and Status

PAYLOADIN ORBIT

Key statistics

Satellite COSMOS 1083 at a glance.

Uptime

16978

Days in orbit

Revolutions

≈ 12.5

Per day

Orbit

LEO

Low Earth Orbit

Inclination

74.0

Latest

Satellite identification and parameters

Extended collection of information and parameters for COSMOS 1083.

Object identification

Identified? True

Debris? False

Object name: COSMOS 1083

International designator: 1979-024C

Object number (NORAD): 11298

Object ID (CCSDS): 11298

Country: COMMONWEALTH OF INDEPENDENT STATES (CIS)

Current information (Y/N): Y

RCS size: MEDIUM

Orbital parameters

Period: 114.96 minutes

Inclination: 74.0302 deg

SMA: 7831.731 km

Apoapsis: 1465.046 km

Periapsis: 1442.146 km

RAAN: 245.9525 deg

Eccentricy: 0.00146203

Argument of periapsis: 9.9677 deg

Mean anomaly: 167.7612 deg

Mean motion: 12.52610685 rev/day

Mean motion (dot): 0.00000001 rev/day2

B* drag term: 0.00010993034 1/REarth

Two-line elements (TLE)

Creation date: Sept. 6, 2025, 2:09 a.m.

Reference frame: TEME

Reference center: EARTH

Epoch: Sept. 5, 2025, 6:23 p.m. UTC

TLE line 0: 0 COSMOS 1083

TLE line 1: 1 11298U 79024C 25248.76645823 .00000001 00000-0 10993-3 0 9991

TLE line 2: 2 11298 74.0302 245.9525 0014620 9.9677 167.7612 12.52610685125264

Live tracking on map

Real-time ground track for satellite COSMOS 1083.

In-orbit conjunctions

There are no conjunctions computed for COSMOS 1083, at the moment. Check back to stay up to date, as we update our databases every day.

Go to all conjunctions

Associated space launch

Military communications satellites

COSMOS 1083 was lifted into orbit during the mission ‘Kosmos-3M | Strela-1M 169-176’, on board a Kosmos-3M space rocket.

The launch took place on March 15, 1979, 2:58 a.m. from 132/2.

For more information about the launch, click the button.

Launch to space Kosmos-3M | Strela-1M 169-176
Kosmos-3M | Strela-1M 169-176

Agency: N/A

Status: Launch Successful

Launch date: March 15, 1979, 2:58 a.m. UTC

Rocket: Kosmos-3M

Launch pad: 132/2

Location: Plesetsk Cosmodrome, Russian Federation

...

Latest news about this satellite

There are no fresh news available about this satellite. Check back as we update our databases every day.


Newsletter sign-up

Weekly statistics, charts and insights to help you stay on top of the space industry.